Location: ?ejeti?ky
(50.4060°N, 14.9016°E)
Time: 00:46:36
(UTC+00:00)

Daily predictions for brighter satellites

Satellite Brightness Start Highest point End
(mag) Time Altitude Azimuth Time Altitude Azimuth Time Altitude Azimuth
STARLINK-1363 3.8 00:00:04 10° WNW 00:03:07 50° N 00:06:11 10° E
STARLINK-1337 3.8 00:00:26 10° WNW 00:03:30 50° N 00:06:34 10° E
STARLINK-1289 3.8 00:02:33 33° S 00:03:38 43° SSE 00:07:13 10° ENE
STARLINK-1342 3.8 00:00:45 10° WNW 00:03:49 51° N 00:06:53 10° E
STARLINK-1364 3.8 00:01:06 10° WNW 00:04:09 51° N 00:07:13 10° E
STARLINK-1376 3.8 00:01:26 10° WNW 00:04:30 51° N 00:07:33 10° E
STARLINK-1360 3.8 00:01:46 10° WNW 00:04:50 51° N 00:07:54 10° E
STARLINK-1268 3.3 00:04:28 39° S 00:04:51 42° SSE 00:07:48 10° ENE
STARLINK-1361 3.8 00:02:07 10° WNW 00:05:11 51° N 00:08:14 10° E
STARLINK-1301 3.8 00:03:56 32° SSW 00:05:15 46° SSE 00:08:57 10° ENE
STARLINK-1367 3.8 00:02:23 10° WNW 00:05:29 51° N 00:08:34 10° E
DELTA 2 DEB (DPAF) 4.3 00:02:35 19° SSE 00:05:47 75° ENE 00:10:15 10° NNW
STARLINK-1366 3.8 00:02:46 10° WNW 00:05:50 51° N 00:08:53 10° E
Cosmos 1400 Rocket 3.0 00:02:22 10° N 00:06:32 76° ENE 00:09:10 22° SSE
STARLINK-1303 3.7 00:05:54 32° SSW 00:07:06 45° SSE 00:10:42 10° ENE
Cosmos 2227 Rocket 3.7 00:03:52 10° NW 00:08:02 21° W 00:10:10 17° SW
Cosmos 1570 Rocket 4.0 00:04:53 24° SSW 00:08:11 81° WNW 00:13:30 10° NNE
STARLINK-66 2.9 00:07:08 36° SW 00:08:13 63° SSE 00:11:25 10° ENE
Cosmos 1709 Rocket 4.0 00:05:05 23° SSW 00:09:07 72° W 00:15:20 10° N
Cosmos 1763 Rocket 4.0 00:05:57 19° SW 00:09:24 52° WNW 00:14:23 10° NNE
STARLINK-1338 4.2 00:06:02 10° WNW 00:09:58 58° N 00:13:55 10° E
STARLINK-1316 3.2 00:09:23 39° S 00:09:59 46° SSE 00:13:01 10° ENE
STARLINK-1312 3.7 00:09:13 31° SSW 00:10:34 47° SSE 00:14:13 10° ENE
STARLINK-1257 3.2 00:10:14 39° S 00:10:52 46° SSE 00:13:54 10° ENE
STARLINK-1256 3.2 00:11:11 39° S 00:11:51 47° SSE 00:14:52 10° ENE
STARLINK-58 3.6 00:11:42 34° S 00:12:10 36° SSE 00:15:08 10° ENE
STARLINK-1213 3.1 00:12:02 39° SSW 00:12:44 48° SSE 00:15:46 10° ENE
Cosmos 2084 Rocket 4.1 00:08:55 10° WNW 00:13:03 38° SW 00:14:58 25° S
STARLINK-52 3.1 00:09:56 10° WNW 00:13:09 75° NNE 00:16:22 10° ESE
STARLINK-1263 3.1 00:12:53 38° SSW 00:13:36 48° SSE 00:16:39 10° ENE
Meteor 1-27 4.5 00:08:20 10° N 00:13:54 67° ENE 00:19:01 12° SSE
STARLINK-1259 3.1 00:13:48 38° SSW 00:14:33 49° SSE 00:17:35 10° ENE
Cosmos 2227 4.2 00:08:55 10° NNW 00:14:43 89° ENE 00:20:30 10° SSE
STARLINK-1265 3.1 00:14:10 38° SSW 00:14:57 50° SSE 00:18:02 10° ENE
STARLINK-1285 3.1 00:14:37 38° SSW 00:15:26 50° SSE 00:18:28 10° ENE
Cosmos 2298 Rocket 4.0 00:10:18 10° NNW 00:15:38 77° WSW 00:19:50 16° SSE
SL-16 R/B 2.7 00:10:29 10° SSE 00:16:36 72° ENE 00:22:48 10° NNW
STARLINK-1296 3.0 00:16:22 37° SSW 00:17:13 51° SSE 00:20:17 10° ENE
Cosmos 1758 Rocket 3.9 00:15:28 25° SW 00:17:53 56° WNW 00:22:17 10° N
STARLINK-1260 3.0 00:17:14 37° SSW 00:18:07 52° SSE 00:21:12 10° ENE
STARLINK-1371 4.1 00:14:24 10° WNW 00:18:20 58° N 00:22:15 10° E
GEOS 3 Rocket 4.2 00:13:26 10° ESE 00:18:34 61° NE 00:23:49 10° NW
STARLINK-1318 3.0 00:18:06 36° SSW 00:19:02 53° SSE 00:22:05 10° ENE
STARLINK-75 2.9 00:18:02 30° SW 00:19:27 68° SSE 00:22:40 10° ENE
STARLINK-1275 3.0 00:18:59 36° SSW 00:19:56 54° SSE 00:23:01 10° ENE
STARLINK-48 4.3 00:19:05 27° S 00:20:19 33° SE 00:23:51 10° ENE
STARLINK-1309 3.0 00:19:50 35° SSW 00:20:50 54° SSE 00:23:53 10° ENE
STARLINK-1282 3.0 00:20:42 35° SSW 00:21:43 55° SSE 00:24:47 10° ENE
IRAS Rocket 4.3 00:18:06 20° S 00:21:54 62° WSW 00:27:24 10° NNW
STARLINK-1283 3.6 00:20:03 24° SW 00:22:22 60° SSE 00:26:27 10° ENE
STARLINK-1341 4.1 00:18:47 10° WNW 00:22:44 59° N 00:26:40 10° E
STARLINK-1313 2.9 00:21:38 33° SW 00:22:49 62° SSE 00:25:54 10° ENE
STARLINK-80 3.5 00:21:07 26° SW 00:23:01 58° SSE 00:26:46 10° ENE
STARLINK-1279 2.8 00:22:33 32° SW 00:23:45 62° SSE 00:26:50 10° ENE
STARLINK-1298 2.9 00:23:16 33° SW 00:24:23 57° SSE 00:27:27 10° ENE
STARLINK-1293 2.9 00:24:10 33° SW 00:25:19 58° SSE 00:28:23 10° ENE
SL-16 R/B 3.3 00:22:44 15° SSE 00:26:48 35° ESE 00:31:53 10° NE
STARLINK-1374 4.1 00:23:08 10° WNW 00:27:06 59° N 00:31:04 10° E
STARLINK-1255 2.9 00:25:54 32° SW 00:27:07 60° SSE 00:30:12 10° ENE
Cosmos 2208 Rocket 4.2 00:23:37 21° SW 00:27:13 70° WNW 00:32:37 10° NNE
STARLINK-22 2.9 00:26:16 29° SW 00:27:42 64° SSE 00:30:54 10° ENE
STARLINK 1040 3.0 00:26:21 15° W 00:28:18 54° N 00:30:49 10° ENE
STARLINK-1297 3.3 00:26:32 27° SW 00:28:18 58° SSE 00:31:52 10° ENE
STARLINK-1444 4.5 00:26:27 10° WNW 00:26:52 14° WNW 00:26:52 14° WNW
STARLINK-1311 2.6 00:28:28 31° SW 00:29:40 70° SSE 00:32:37 10° ENE
CZ-2D R/B 2.6 00:25:53 10° NNE 00:31:00 53° E 00:35:02 16° S
STARLINK-1339 4.1 00:27:24 10° WNW 00:31:22 60° N 00:35:18 10° E
Cosmos-2242 3.8 00:28:23 10° NNW 00:32:17 36° W 00:34:23 22° SW
MOZ.5/SAFIR/RUBIN 5/SL-8 3.7 00:29:15 18° S 00:32:40 76° WSW 00:37:22 10° NNW
USA 215 3.8 00:28:07 11° SSE 00:33:41 35° SW 00:39:37 10° WNW
Cosmos 2221 3.0 00:30:55 10° N 00:35:15 59° ENE 00:39:28 11° SSE
STARLINK-1377 4.1 00:31:49 10° WNW 00:35:48 61° N 00:39:46 10° E
Cosmos 1953 Rocket 3.7 00:33:32 23° SSW 00:36:14 64° WNW 00:40:37 10° N
BREEZE-M R/B 2.6 00:32:57 10° W 00:38:21 83° S 00:41:19 10° E
STARLINK-42 2.8 00:36:26 20° WSW 00:38:26 89° S 00:41:35 10° ENE
GP-B 3.1 00:35:29 10° N 00:39:56 76° W 00:42:59 20° S
STARLINK-1353 4.1 00:36:09 10° WNW 00:40:08 62° N 00:44:07 10° E
STARLINK-1029 3.3 00:39:05 29° SSW 00:40:18 46° SSE 00:43:21 10° ENE
STARLINK-60 3.2 00:38:02 10° WNW 00:41:05 43° SSW 00:44:08 10° SE
STARLINK-34 2.9 00:40:02 28° SW 00:41:24 58° SSE 00:44:26 10° ENE
FALCON 9 DEB 3.2 00:38:06 10° WNW 00:41:34 79° NNE 00:45:02 10° ESE
CZ-4C R/B 3.6 00:38:34 17° S 00:41:52 72° WSW 00:46:20 10° NNW
Cosmos 1315 Rocket 3.0 00:38:10 10° N 00:42:07 69° ENE 00:45:45 12° SSE
STARLINK-41 2.7 00:40:10 20° WSW 00:42:10 90° NE 00:45:14 10° ENE
Cosmos 1842 Rocket 3.6 00:37:43 10° N 00:42:13 83° E 00:46:05 14° SSE
STARLINK-1272 3.1 00:42:01 20° WSW 00:44:21 73° SSE 00:47:53 10° ENE
STARLINK-1375 4.0 00:40:32 10° WNW 00:44:31 63° N 00:48:30 10° E
Cosmos 540 Rocket 4.0 00:41:07 17° SW 00:44:54 51° WNW 00:49:55 10° NNE
STARLINK-62 2.8 00:43:45 26° SW 00:45:14 61° SSE 00:48:16 10° ENE
Helios 1B rocket 4.2 00:44:11 10° N 00:47:27 23° WNW 00:50:24 12° WSW
STARLINK-1350 4.0 00:44:52 10° WNW 00:48:51 64° N 00:52:52 10° E
Cosmos 2360 Rocket 3.9 00:44:48 10° SSE 00:49:11 24° ESE 00:53:35 10° NE
STARLINK-1307 3.2 00:46:48 18° WSW 00:49:30 76° SSE 00:53:14 10° ENE
STARLINK-1290 3.2 00:50:11 16° WSW 00:53:01 79° SSE 00:56:45 10° ENE
STARLINK-1352 4.0 00:49:07 10° WNW 00:53:07 65° N 00:57:06 10° E
Cosmos 2058 3.9 00:50:48 11° SSE 00:54:36 42° E 00:58:36 10° NNE
Shenzhou-11 Module 4.0 00:56:40 11° SE 00:56:40 11° SE 00:56:51 10° SE
Cosmos 1980 Rocket 2.6 00:51:50 15° SW 00:56:25 55° NW 01:02:01 10° NNE
Cosmos 2074 Rocket 4.0 00:51:22 16° SSW 00:56:28 78° W 01:02:47 10° N
STARLINK-1368 3.9 00:53:43 10° WNW 00:57:43 67° NNE 01:01:44 10° E
Cosmos 1455 4.4 00:57:12 10° WNW 00:58:38 12° W 01:00:05 10° WSW
STARLINK-1305 4.5 00:57:04 19° SSW 00:59:27 35° SE 01:03:15 10° ENE
STARLINK-1306 4.4 00:57:24 19° SSW 00:59:53 37° SE 01:03:47 10° ENE
CZ-4B R/B 3.8 00:54:38 10° NNE 00:59:53 68° ESE 01:04:34 13° S
STARLINK-1317 3.4 00:56:33 13° WSW 01:00:00 88° SSE 01:03:56 10° ENE
STARLINK-1369 3.9 00:58:09 10° WNW 01:02:10 68° NNE 01:06:11 10° E
STARLINK-55 3.2 01:00:40 10° W 01:03:52 67° NNW 01:07:04 10° ENE
STARLINK-1274 3.2 01:00:55 13° WSW 01:04:00 90° NNW 01:07:34 10° ENE
STARLINK-1262 4.4 01:01:53 18° SSW 01:04:26 38° SE 01:08:17 10° ENE
STARLINK-43 3.9 01:01:40 10° W 01:05:19 59° N 01:08:58 10° ENE
STARLINK-1372 3.8 01:02:23 10° WNW 01:06:24 70° NNE 01:10:24 10° E
STARLINK-1291 3.3 01:04:15 12° WSW 01:07:43 88° NNW 01:11:28 10° ENE
ADEOS II 2.9 01:03:59 10° NNE 01:09:04 47° E 01:14:06 10° S
STARLINK-1300 4.3 01:06:39 18° SSW 01:09:23 40° SE 01:13:17 10° ENE
Cosmos 2263 Rocket 2.6 01:05:21 10° NW 01:10:37 43° WSW 01:15:50 10° S
STARLINK-1264 3.3 01:07:26 11° WSW 01:11:02 85° NNW 01:14:48 10° ENE
STARLINK-1378 3.8 01:07:01 10° WNW 01:11:03 72° NNE 01:15:04 10° E
IRS-1D 3.9 01:07:08 10° NNE 01:12:23 62° ESE 01:17:30 10° S
STARLINK-29 3.2 01:10:48 10° WNW 01:13:53 45° SSW 01:16:56 10° SE
AQUA 3.8 01:09:20 10° NNE 01:14:08 87° ESE 01:18:24 13° SSW
STARLINK-1295 4.2 01:11:25 17° SSW 01:14:19 43° SSE 01:18:16 10° ENE
STARLINK-1267 3.4 01:10:40 10° WSW 01:14:24 83° NNW 01:18:09 10° ENE
NOSS 2-1 (C) 3.1 01:12:04 18° SSW 01:14:29 68° SE 01:18:10 10° NE
UNK 4.3 01:11:40 15° SSW 01:15:13 41° W 01:19:34 10° NNW
SL-4 R/B 2.9 01:10:58 10° W 01:15:24 37° SW 01:19:41 10° SSE
STARLINK-28 3.4 01:12:15 10° W 01:15:26 60° N 01:18:36 10° ENE
STARLINK-1379 3.8 01:11:31 10° WNW 01:15:33 74° NNE 01:19:35 10° E
USA 229 DEB 4.1 01:09:42 10° NW 01:16:39 50° WSW 01:23:55 10° SSE
USA 229 4.1 01:09:48 10° NW 01:16:46 51° WSW 01:24:02 10° SSE
STARLINK-64 3.3 01:14:12 16° SW 01:16:57 61° SSE 01:20:30 10° ENE
NOSS 3-1 (C) 4.3 01:10:22 10° NW 01:17:32 48° WSW 01:25:39 10° SSE
NPP 3.7 01:12:37 10° NNE 01:18:02 77° WNW 01:22:54 13° SSW
ARIANE 5 R/B 3.8 01:14:11 10° NNE 01:18:46 35° E 01:23:18 10° SSE
STARLINK-1287 4.1 01:16:12 16° SW 01:19:17 46° SSE 01:23:15 10° ENE
STARLINK-1329 3.7 01:15:19 10° WNW 01:19:21 76° NNE 01:23:24 10° ESE
NOSS 2-1 (D) 3.0 01:16:50 17° SW 01:19:23 76° SE 01:23:06 10° NE
STARLINK-1207 3.4 01:17:26 10° WSW 01:21:11 78° NNW 01:24:57 10° ENE
Cosmos 2184 Rocket 4.3 01:16:26 14° SSW 01:21:42 55° WNW 01:27:46 10° N
ERS-2 3.8 01:19:30 10° SE 01:22:51 35° ENE 01:26:14 10° N
STARLINK-1362 3.7 01:19:50 10° WNW 01:23:54 79° NNE 01:27:57 10° ESE
CZ-4C R/B 3.8 01:19:04 10° W 01:24:07 34° NNW 01:30:06 10° NE
STARLINK-1266 3.5 01:20:50 10° WSW 01:24:35 76° NNW 01:28:21 10° ENE
BREEZE-M DEB (TANK) 2.0 01:23:14 16° WSW 01:24:39 53° SSE 01:28:00 10° E
Cosmos 1892 2.7 01:21:53 12° S 01:25:22 84° E 01:29:10 10° NNE
STARLINK-33 3.4 01:22:33 10° W 01:25:38 58° N 01:28:43 10° ENE
NOSS 3-1 (A) 4.1 01:18:28 10° NW 01:25:48 61° SW 01:34:14 10° SSE
STARLINK-1299 3.9 01:24:06 13° SW 01:27:43 58° SSE 01:31:55 10° ENE
STARLINK-1284 3.5 01:24:14 10° WSW 01:27:59 74° NNW 01:31:45 10° ENE
STARLINK-1373 3.7 01:24:22 10° WNW 01:28:25 81° NNE 01:32:27 10° ESE
STARLINK-1320 2.8 01:25:28 10° WNW 01:28:35 84° SSW 01:31:43 10° ESE
STARLINK-1322 2.8 01:25:49 10° WNW 01:28:57 84° SSW 01:32:04 10° ESE
BREEZE-M DEB (TANK) 1.0 01:26:44 10° W 01:29:02 61° S 01:31:49 10° ESE
STARLINK-26 3.7 01:25:42 10° W 01:29:07 59° N 01:32:32 10° ENE
STARLINK-1302 3.9 01:25:46 14° SW 01:29:11 52° SSE 01:33:14 10° ENE
STARLINK-1324 2.8 01:26:08 10° WNW 01:29:16 84° SSW 01:32:23 10° ESE
STARLINK-1294 2.8 01:26:26 10° WNW 01:29:35 83° SSW 01:32:43 10° ESE
Cosmos 1869 3.8 01:26:02 10° NNW 01:29:41 40° W 01:33:01 12° SSW
STARLINK-1261 2.8 01:26:50 10° WNW 01:29:57 83° SSW 01:33:05 10° ESE
STARLINK-1325 2.8 01:27:10 10° WNW 01:30:18 83° SSW 01:33:26 10° ESE
STARLINK-1333 2.8 01:27:32 10° WNW 01:30:40 82° SSW 01:33:48 10° ESE
STARLINK-1334 2.8 01:27:49 10° WNW 01:30:57 82° SSW 01:34:04 10° ESE
STARLINK-1326 2.8 01:28:09 10° WNW 01:31:16 82° SSW 01:34:24 10° ESE
STARLINK-1258 3.6 01:27:41 10° W 01:31:26 73° NNW 01:35:11 10° ENE
STARLINK-1323 2.8 01:28:31 10° WNW 01:31:40 81° SSW 01:34:47 10° ESE
STARLINK-1349 2.8 01:28:49 10° WNW 01:31:57 81° SSW 01:35:05 10° ESE
STARLINK-1336 2.8 01:29:09 10° WNW 01:32:16 81° SSW 01:35:24 10° ESE
STARLINK-1331 2.7 01:29:32 10° WNW 01:32:39 80° SSW 01:35:46 10° ESE
STARLINK-1344 2.7 01:29:50 10° WNW 01:32:57 80° SSW 01:36:05 10° ESE
STARLINK-1390 3.6 01:28:57 10° WNW 01:33:01 84° NNE 01:37:05 10° ESE
STARLINK-1343 2.8 01:30:13 10° WNW 01:33:21 80° SSW 01:36:27 10° ESE
STARLINK-1346 2.8 01:30:29 10° WNW 01:33:39 80° SSW 01:36:48 10° ESE
STARLINK-1328 2.7 01:30:56 10° WNW 01:34:04 79° SSW 01:37:11 10° ESE
STARLINK-1273 3.9 01:30:32 13° SW 01:34:09 56° SSE 01:38:13 10° ENE
STARLINK-1354 2.7 01:31:13 10° WNW 01:34:21 79° SSW 01:37:28 10° ESE
STARLINK-1347 2.7 01:31:31 10° WNW 01:34:38 78° SSW 01:37:45 10° ESE
STARLINK-1292 3.6 01:31:08 10° W 01:34:52 71° NNW 01:38:38 10° ENE
Cosmos 2322 Rocket 2.2 01:29:42 12° SSW 01:34:59 87° ESE 01:40:38 10° NNE
STARLINK-1357 2.7 01:31:56 10° WNW 01:35:04 78° SSW 01:38:11 10° ESE
STARLINK-1335 2.7 01:32:13 10° WNW 01:35:21 78° SSW 01:38:29 10° ESE
STARLINK-1327 2.7 01:32:35 10° WNW 01:35:42 77° SSW 01:38:49 10° ESE
STARLINK-1340 2.7 01:32:52 10° WNW 01:36:00 77° SSW 01:39:06 10° ESE
STARLINK-1356 2.7 01:33:15 10° WNW 01:36:23 77° SSW 01:39:30 10° ESE
In-Cosmos 22 Rocket 4.2 01:31:01 10° SSW 01:36:37 80° WNW 01:42:06 10° N
STARLINK-1345 2.7 01:33:34 10° WNW 01:36:41 76° SSW 01:39:48 10° ESE
STARLINK-1355 2.7 01:33:56 10° WNW 01:37:03 76° SSW 01:40:10 10° ESE
STARLINK-1321 2.7 01:34:16 10° WNW 01:37:24 76° SSW 01:40:31 10° ESE
STARLINK-1358 2.7 01:34:40 10° WNW 01:37:47 75° SSW 01:40:53 10° ESE
STARLINK-1332 2.7 01:34:57 10° WNW 01:38:04 75° SSW 01:41:11 10° ESE
STARLINK-1348 2.7 01:35:17 10° WNW 01:38:24 75° SSW 01:41:32 10° ESE
STARLINK-1330 2.7 01:35:37 10° WNW 01:38:44 74° SSW 01:41:50 10° ESE
STARLINK-1365 3.6 01:34:56 10° WNW 01:39:02 89° NNE 01:43:07 10° ESE
STARLINK-1363 2.7 01:35:57 10° WNW 01:39:04 74° SSW 01:42:10 10° ESE
STARLINK-1288 3.8 01:35:19 12° SW 01:39:06 59° SSE 01:43:12 10° ENE
STARLINK-61 3.9 01:35:51 12° SW 01:39:13 47° SSE 01:43:00 10° ENE
STARLINK-1337 2.7 01:36:19 10° WNW 01:39:26 74° SSW 01:42:33 10° ESE
STARLINK-1342 2.7 01:36:38 10° WNW 01:39:45 73° SSW 01:42:52 10° ESE
Resurs 1-4 Rocket 2.7 01:34:49 10° N 01:39:52 45° WNW 01:44:54 10° SW
STARLINK-1364 2.8 01:36:58 10° WNW 01:40:06 73° SSW 01:43:13 10° ESE
STARLINK-1376 2.7 01:37:19 10° WNW 01:40:26 73° SSW 01:43:33 10° ESE
STARLINK-1268 3.4 01:37:28 10° W 01:40:32 59° N 01:43:36 10° ENE
STARLINK-1360 2.8 01:37:39 10° WNW 01:40:46 72° SSW 01:43:54 10° ESE
STARLINK-1361 2.8 01:38:00 10° WNW 01:41:07 72° SSW 01:44:13 10° ESE
STARLINK-1367 2.8 01:38:15 10° WNW 01:41:25 71° SSW 01:44:33 10° ESE
STARLINK-1289 3.7 01:37:59 10° W 01:41:44 68° NNW 01:45:30 10° ENE
STARLINK-1366 2.8 01:38:39 10° WNW 01:41:46 71° SSW 01:44:52 10° ESE
STARLINK-1301 3.8 01:39:53 10° W 01:43:44 67° NNW 01:47:35 10° ENE
STARLINK-1308 3.7 01:40:08 11° SW 01:44:07 63° SSE 01:48:14 10° ENE
Cosmos 1076 Rocket 3.6 01:39:51 10° SSW 01:44:12 66° WNW 01:48:34 10° N
STARLINK-66 3.7 01:41:16 10° W 01:44:26 53° N 01:47:35 10° ENE
STARLINK-1303 3.7 01:41:29 10° W 01:45:14 66° NNW 01:48:59 10° ENE
STARLINK-1316 3.4 01:42:42 10° W 01:45:47 58° N 01:48:53 10° ENE
Cosmos 2151 3.5 01:41:43 10° S 01:45:55 59° E 01:50:10 10° NNE
COBE Rocket 4.1 01:41:18 10° SSE 01:46:23 87° E 01:51:37 10° NNW
STARLINK-1257 3.5 01:43:35 10° W 01:46:41 57° N 01:49:47 10° ENE
STARLINK-1256 3.5 01:44:35 10° W 01:47:39 57° N 01:50:45 10° ENE
H-2A R/B 2.9 01:43:17 10° SSE 01:47:39 58° ENE 01:52:06 10° N
STARLINK-58 3.3 01:44:55 10° W 01:48:05 65° NNW 01:51:15 10° ENE
STARLINK-1213 3.5 01:45:28 10° W 01:48:33 57° N 01:51:38 10° ENE
STARLINK-1312 3.8 01:44:58 10° W 01:48:44 65° NNW 01:52:30 10° ENE
STARLINK-52 3.8 01:46:16 10° W 01:49:06 28° SW 01:51:55 10° SSE
STARLINK-1338 3.5 01:45:09 10° WNW 01:49:09 84° SSW 01:53:08 10° ESE
STARLINK-1263 3.5 01:46:21 10° W 01:49:26 56° N 01:52:31 10° ENE
STARLINK-1259 3.5 01:47:18 10° W 01:50:23 56° N 01:53:28 10° ENE
STARLINK-1265 3.5 01:47:40 10° W 01:50:46 56° N 01:53:54 10° ENE
Okean 3 Rocket 4.3 01:46:30 10° S 01:50:56 55° E 01:55:24 10° NNE
STARLINK-1285 3.5 01:48:10 10° W 01:51:15 56° N 01:54:21 10° ENE
STARLINK-1296 3.5 01:50:00 10° W 01:53:04 55° N 01:56:09 10° ENE
Cosmos 1408 2.6 01:49:55 10° SSW 01:53:36 76° WNW 01:57:17 10° N
STARLINK-1260 3.5 01:50:53 10° W 01:53:58 55° N 01:57:04 10° ENE
STARLINK-1304 3.7 01:49:55 10° WSW 01:54:03 70° SSE 01:58:11 10° ENE
STARLINK-1318 3.6 01:51:48 10° W 01:54:53 55° N 01:57:58 10° ENE
STARLINK-75 3.7 01:52:29 10° W 01:55:40 53° N 01:58:51 10° ENE
STARLINK-1275 3.6 01:52:43 10° W 01:55:47 55° N 01:58:53 10° ENE
Cosmos 2154 Rocket 4.5 01:50:06 10° SSW 01:56:06 48° WNW 02:02:06 10° N
STARLINK-1309 3.6 01:53:36 10° W 01:56:41 54° N 01:59:45 10° ENE
GEOS 3 Rocket 4.3 01:52:09 10° S 01:56:51 34° WSW 02:01:39 10° NW
STARLINK-1371 3.4 01:53:25 10° WNW 01:57:23 78° SSW 02:01:20 10° ESE
STARLINK-1282 3.6 01:54:30 10° W 01:57:34 54° N 02:00:40 10° ENE
STARLINK-1313 3.7 01:55:38 10° W 01:58:42 53° N 02:01:47 10° ENE
STARLINK-48 3.6 01:54:49 10° WSW 01:58:43 78° NNW 02:02:38 10° ENE
STARLINK-1279 3.7 01:56:35 10° W 01:59:38 52° N 02:02:43 10° ENE
Cosmos 1825 2.2 01:56:24 10° S 02:00:10 85° E 02:03:58 10° N
STARLINK-1278 3.7 01:55:57 10° WSW 02:00:13 81° SSE 02:04:30 10° ENE
STARLINK-1298 3.6 01:57:11 10° W 02:00:15 53° N 02:03:19 10° ENE
Cosmos 1339 Rocket 4.5 01:54:16 10° NNW 02:00:23 81° W 02:06:33 10° S
SL-16 R/B 3.7 01:55:58 10° SW 02:00:48 24° W 02:05:41 10° NW
Cosmos 2237 4.4 01:55:07 10° SSW 02:00:50 79° ESE 02:06:36 10° NNE
STARLINK-1293 3.6 01:58:06 10° W 02:01:11 53° N 02:04:16 10° ENE
STARLINK-31 4.5 01:58:03 10° SSW 02:01:17 31° SE 02:04:32 10° E
STARLINK-80 3.9 01:57:32 10° W 02:01:19 61° N 02:05:06 10° ENE
STARLINK-1341 3.4 01:57:48 10° WNW 02:01:47 74° SSW 02:05:43 10° ESE
STARLINK-1283 4.1 01:57:51 10° W 02:01:57 63° N 02:06:04 10° ENE
STARLINK-1280 3.7 01:57:48 10° WSW 02:02:04 83° SSE 02:06:21 10° ENE
SL-08 R/B 3.4 01:57:41 10° S 02:02:14 56° WSW 02:06:47 10° NNW
STARLINK 1040 3.4 01:59:57 10° WNW 02:02:27 48° N 02:04:56 10° E
STARLINK-69 4.3 01:59:38 10° SSW 02:02:54 33° SE 02:06:11 10° E
STARLINK-1255 3.6 01:59:55 10° W 02:03:00 53° N 02:06:04 10° ENE
IRS-P3 4.2 01:58:06 10° NNE 02:03:27 75° WNW 02:08:45 10° SSW
STARLINK-22 3.7 02:00:44 10° W 02:03:54 53° N 02:07:03 10° ENE
STARLINK-21 4.4 02:01:17 10° SSW 02:04:33 33° SE 02:07:50 10° E
STARLINK-1311 3.6 02:02:09 10° W 02:05:02 49° N 02:07:56 10° ENE
Cosmos 1844 Rocket 2.7 01:59:43 10° NNW 02:05:18 68° WSW 02:10:50 10° SSE
STARLINK-1297 3.8 02:02:24 10° W 02:05:58 59° N 02:09:34 10° ENE
STARLINK-1374 3.5 02:02:15 10° WNW 02:06:16 71° SSW 02:10:15 10° ESE
STARLINK-45 4.2 02:02:57 10° SSW 02:06:18 36° SE 02:09:40 10° ENE
NOSS 2-1 (E) 3.8 02:05:36 10° WSW 02:08:55 46° NW 02:12:45 10° NE
STARLINK-76 4.3 02:06:05 10° SSW 02:09:24 35° SE 02:12:45 10° ENE
STARLINK-70 4.2 02:06:27 10° SW 02:09:51 37° SE 02:13:17 10° ENE
STARLINK-1339 3.5 02:06:26 10° WNW 02:10:23 68° SSW 02:14:19 10° SE
STARLINK-1286 3.7 02:06:31 10° WSW 02:10:42 84° SSE 02:14:53 10° ENE
SL-16 R/B 2.8 02:05:16 10° SW 02:10:45 49° NW 02:16:17 10° NNE
CZ-2D R/B 3.4 02:06:26 10° N 02:10:48 28° WNW 02:15:09 10° WSW
